Location: Nians�bougou
(13.2321°N, 4.9818°W)
Time: 14:21:46
(UTC+00:00)

GPS 2-18 Rocket1 - Pass Details

Date: 18 February 2020
Orbit: 459 x 516 km, 20.9° (Epoch: 29 March)

Event Time Altitude Azimuth Distance (km) Brightness Sun altitude
Exits shadow 06:20:50 - 277° (W) 1,886 5.3 -5.8°
Reaches altitude 10° 06:21:27 10° 275° (W) 1,652 5.1 -5.7°
Maximum altitude 06:25:08 48° 200° (SSW) 643 3.6 -4.8°
Drops below altitude 10° 06:28:55 10° 125° (SE) 1,686 7.1 -3.9°
Sets 06:31:13 0° 119° (ESE) 2,579 8.5 -3.3°
